Flag for Belgium Weather past 2 weeks in Eupen, Belgium

Now
70 °F

Sunny.


Feels Like: 70 °F
Forecast: 58 / 85 °F
Wind: N/A

Location: Spa / La Sauveniere

Current Time: Aug 2, 2015 at 12:53:22 PM

Latest Report: Aug 2, 2015 at 12:00 PM


Visibility: 11 mi

Pressure: 30.13 "Hg

Humidity: 47%

Dew point: 49 °F

Location of EupenLocation

Historic Weather in Eupen — Graph

°F

Eupen temperature yesterday

Maximum temperature yesterday: 69 °F (at 4:00 PM)
Minimum temperature yesterday: 54 °F (at 2:00 AM)
Average temperature yesterday: 62 °F

Past Weeks' High & Low Weather Summary

 TemperatureHumidityPressure
High77 °F (Jul 24, 5:00 PM)97% (Jul 19, 5:00 AM)30.17 "Hg (Jul 19, 5:00 AM)
Low46 °F (Jul 31, 7:00 AM)43% (Jul 24, 5:00 PM)29.56 "Hg (Jul 25, 7:00 AM)
Average59 °F77%29.93 "Hg
* Reported Jul 18 11:00 AM — Aug 2 11:00 AM, Eupen, Weather by CustomWeather, © 2015

Note: Actual official high and low records may vary slightly from our data, if they occured in-between our weather recording intervals... More about our weather records

Advertising

Eupen weather history for previous 24 hours

 ConditionsComfort  
Time TempWeatherWind HumidityBarometerVisibility
11:00 AM
Sun, Aug 2
68 °FSunny.1 mph49%30.14 "Hg19 mi
10:00 AM66 °FSunny.2 mph54%30.13 "Hg13 mi
9:00 AM63 °FSunny.2 mph63%30.13 "Hg16 mi
8:00 AM57 °FSunny.No wind73%30.15 "Hg14 mi
7:00 AM56 °FSunny.3 mph71%30.14 "Hg13 mi
6:00 AM51 °FClear.1 mph86%30.14 "Hg8 mi
5:00 AM52 °FClear.1 mph83%30.14 "Hg12 mi
4:00 AM51 °FClear.1 mph83%30.13 "Hg13 mi
3:00 AM54 °FClear.2 mph75%30.12 "Hg12 mi
2:00 AM53 °FClear.2 mph78%30.12 "Hg8 mi
1:00 AM55 °FClear.1 mph74%30.11 "Hg13 mi
12:00 AM56 °FClear.1 mph72%30.11 "Hg15 mi
10:00 PM
Sat, Aug 1
61 °FClear.No wind65%30.06 "Hg19 mi
9:00 PM64 °FSunny.1 mph55%30.03 "Hg25 mi
8:00 PM65 °FSunny.3 mph53%30.02 "Hg25 mi
6:00 PM69 °FSunny.3 mph46%29.98 "Hg17 mi
5:00 PM68 °FSunny.3 mph51%29.98 "Hg22 mi
4:00 PM69 °FPassing clouds.N/A50%29.98 "Hg15 mi
3:00 PM68 °FSunny.N/A51%29.98 "Hg16 mi
2:00 PM67 °FSunny.3 mph53%29.98 "Hg22 mi
1:00 PM66 °FSunny.3 mph56%29.98 "Hg19 mi
12:00 PM65 °FSunny.3 mph60%29.98 "Hg19 mi
Weather by CustomWeather, © 2015

See weather overviewHow to use our weather pages